Overview Statistics Trail Chart Weather Telemetry Raw packets
 

This is the latest recevied weather packets stored in our database for station/object W7TRD. If no packets are shown the sender has not sent any weather packets the latest 10 day(s).

<< 34 35 36 37 38 39 40 >>
Time Temp. Humidity Pressure Rain* Wind** Luminosity Snow
1788388711 15° C 96% 1007.7 hPa 0 mm - 99 W/m² -
1788388406 15° C 97% 1007.7 hPa 0 mm - 96 W/m² -
1788388105 15° C 97% 1007.7 hPa 0 mm - 106 W/m² -
1788387804 15° C 98% 1007.9 hPa 0 mm - 54 W/m² -
1788387499 15° C 98% 1007.9 hPa 0 mm - 81 W/m² -
1788387198 15° C 98% 1007.7 hPa 0 mm - 108 W/m² -
1788386894 15° C 98% 1007.7 hPa 0 mm - 72 W/m² -
1788386593 15° C 98% 1007.7 hPa 0 mm - 67 W/m² -
1788386289 14.44° C 98% 1007.7 hPa 0 mm - 113 W/m² -
1788386001 14.44° C 98% 1007.6 hPa 0 mm - 73 W/m² -
1788385685 14.44° C 98% 1007.7 hPa 0 mm - 91 W/m² -
1788385384 14.44° C 98% 1007.6 hPa 0 mm - 77 W/m² -
1788385079 14.44° C 98% 1007.6 hPa 1.78 mm - 95 W/m² -
1788384774 14.44° C 98% 1007.4 hPa 1.78 mm - 111 W/m² -
1788384473 14.44° C 97% 1007.8 hPa 0 mm - 143 W/m² -
1788384170 14.44° C 97% 1007.6 hPa 0 mm - 68 W/m² -
1788383866 14.44° C 96% 1007.5 hPa 0 mm - 72 W/m² -
1788383562 14.44° C 96% 1007.7 hPa 0 mm - 94 W/m² -
1788383261 14.44° C 96% 1007.7 hPa 1.27 mm - 108 W/m² -
1788382957 14.44° C 96% 1007.5 hPa 1.27 mm - 105 W/m² -
1788382655 14.44° C 97% 1007.4 hPa 0 mm - 126 W/m² -
1788382350 14.44° C 97% 1007.5 hPa 0 mm - 114 W/m² -
1788382045 14.44° C 97% 1007.4 hPa 0 mm - 80 W/m² -
1788381740 14.44° C 96% 1007.5 hPa 0 mm - 109 W/m² -
1788381436 14.44° C 96% 1007.6 hPa 0 mm - 88 W/m² -

* Rain latest hour (hover to see other rain measurements)
** Current wind speed in m/s (hover to see current wind gust speed)